Location: Harbor Side
(32.6101°N, 117.0814°W)
Time: 07:11:03
(UTC+00:00)

SL-27 R/B - Pass Details

Date: 21 April 2021
Orbit: 419 x 467 km, 74.7° (Epoch: 13 May)

Event Time Altitude Azimuth Distance (km) Brightness Sun altitude
Rises 12:04:36 0° 352° (N) 2,375 6.3 -14.1°
Reaches altitude 10° 12:06:45 10° 1° (N) 1,504 5.4 -13.7°
Maximum altitude 12:09:52 39° 72° (ENE) 642 3.8 -13.1°
Drops below altitude 10° 12:12:57 10° 143° (SE) 1,494 5.2 -12.5°
Sets 12:15:04 0° 151° (SSE) 2,356 6.1 -12.1°
